Time,TemperatureF,DewpointF,PressureIn,WindDirection,WindDirectionDegrees,WindSpeedMPH,WindSpeedGustMPH,Humidity,HourlyPrecipIn,Conditions,Clouds,dailyrainin,SolarRadiationWatts/m^2,SoftwareType,DateUTC
2013-03-08 00:01:00,42.0,41.0,-100.00,ENE,66,9.0,14.0,96,0.00,,,0.12,0.000000,,2013-03-08 08:01:00,
2013-03-08 00:11:00,42.0,41.0,-100.00,ENE,66,9.0,14.0,96,0.00,,,0.12,0.000000,,2013-03-08 08:11:00,
2013-03-08 00:21:00,42.0,41.0,-100.00,ENE,66,9.0,14.0,96,0.00,,,0.12,0.000000,,2013-03-08 08:21:00,
2013-03-08 00:52:00,42.0,40.0,-100.00,ENE,63,11.0,15.0,93,0.00,,,0.12,0.000000,,2013-03-08 08:52:00,
2013-03-08 01:02:00,42.0,40.0,-100.00,ENE,63,11.0,15.0,93,0.00,,,0.12,0.000000,,2013-03-08 09:02:00,
2013-03-08 01:11:00,42.0,40.0,-100.00,ENE,63,11.0,15.0,93,0.00,,,0.12,0.000000,,2013-03-08 09:11:00,
2013-03-08 01:21:00,42.0,40.0,-100.00,ENE,63,11.0,15.0,93,0.00,,,0.12,0.000000,,2013-03-08 09:21:00,
2013-03-08 01:52:00,41.0,36.0,-100.00,NE,51,12.0,17.0,81,0.00,,,0.12,0.000000,,2013-03-08 09:52:00,
2013-03-08 02:01:00,41.0,36.0,-100.00,NE,51,12.0,17.0,81,0.00,,,0.12,0.000000,,2013-03-08 10:01:00,
2013-03-08 02:11:00,41.0,36.0,-100.00,NE,51,12.0,17.0,81,0.00,,,0.12,0.000000,,2013-03-08 10:11:00,
2013-03-08 02:21:00,41.0,36.0,-100.00,NE,51,12.0,17.0,81,0.00,,,0.12,0.000000,,2013-03-08 10:21:00,
2013-03-08 02:52:00,41.0,36.0,-100.00,ENE,58,11.0,15.0,83,0.00,,,0.12,0.000000,,2013-03-08 10:52:00,
2013-03-08 03:01:00,41.0,36.0,-100.00,ENE,58,11.0,15.0,83,0.00,,,0.12,0.000000,,2013-03-08 11:01:00,
2013-03-08 03:11:00,41.0,36.0,-100.00,ENE,58,11.0,15.0,83,0.00,,,0.12,0.000000,,2013-03-08 11:11:00,
2013-03-08 03:21:00,41.0,36.0,-100.00,ENE,58,11.0,15.0,83,0.00,,,0.12,0.000000,,2013-03-08 11:21:00,
2013-03-08 03:52:00,41.0,35.0,-100.00,NE,54,11.0,15.0,79,0.00,,,0.12,0.000000,,2013-03-08 11:52:00,
2013-03-08 04:01:00,41.0,35.0,-100.00,NE,54,11.0,15.0,79,0.00,,,0.12,0.000000,,2013-03-08 12:01:00,
2013-03-08 04:11:00,41.0,35.0,-100.00,NE,54,11.0,15.0,79,0.00,,,0.12,0.000000,,2013-03-08 12:11:00,
2013-03-08 04:22:00,41.0,35.0,-100.00,NE,54,11.0,15.0,79,0.00,,,0.12,0.000000,,2013-03-08 12:22:00,
2013-03-08 04:52:00,40.0,36.0,-100.00,North,349,6.0,14.0,87,0.00,,,0.12,0.000000,,2013-03-08 12:52:00,
2013-03-08 05:01:00,40.0,36.0,-100.00,North,349,6.0,14.0,87,0.00,,,0.12,0.000000,,2013-03-08 13:01:00,
2013-03-08 05:11:00,40.0,36.0,-100.00,North,349,6.0,14.0,87,0.00,,,0.12,0.000000,,2013-03-08 13:11:00,
2013-03-08 05:21:00,40.0,36.0,-100.00,North,349,6.0,14.0,87,0.00,,,0.12,0.000000,,2013-03-08 13:21:00,
2013-03-08 05:52:00,41.0,33.0,-100.00,NNW,344,11.0,12.0,74,0.00,,,0.12,0.000000,,2013-03-08 13:52:00,
2013-03-08 06:02:00,41.0,33.0,-100.00,NNW,344,11.0,12.0,74,0.00,,,0.12,0.000000,,2013-03-08 14:02:00,
2013-03-08 06:11:00,41.0,33.0,-100.00,NNW,344,11.0,12.0,74,0.00,,,0.12,0.000000,,2013-03-08 14:11:00,
2013-03-08 06:21:00,41.0,33.0,-100.00,NNW,344,11.0,12.0,74,0.00,,,0.12,0.000000,,2013-03-08 14:21:00,
2013-03-08 06:52:00,40.0,35.0,-100.00,NW,315,11.0,16.0,81,0.00,,,0.12,0.000000,,2013-03-08 14:52:00,
2013-03-08 07:02:00,40.0,35.0,-100.00,NW,315,11.0,16.0,81,0.00,,,0.12,0.000000,,2013-03-08 15:02:00,
2013-03-08 07:11:00,40.0,35.0,-100.00,NW,315,11.0,16.0,81,0.00,,,0.12,0.000000,,2013-03-08 15:11:00,
2013-03-08 07:21:00,40.0,35.0,-100.00,NW,315,11.0,16.0,81,0.00,,,0.12,0.000000,,2013-03-08 15:21:00,
2013-03-08 07:53:00,42.0,33.0,-100.00,NW,325,12.0,19.0,70,0.00,,,0.12,54.000000,,2013-03-08 15:53:00,
2013-03-08 08:01:00,42.0,33.0,-100.00,NW,325,12.0,19.0,70,0.00,,,0.12,54.000000,,2013-03-08 16:01:00,
2013-03-08 08:11:00,42.0,33.0,-100.00,NW,325,12.0,19.0,70,0.00,,,0.12,54.000000,,2013-03-08 16:11:00,
2013-03-08 08:21:00,42.0,33.0,-100.00,NW,325,12.0,19.0,70,0.00,,,0.12,54.000000,,2013-03-08 16:21:00,
2013-03-08 08:52:00,45.0,32.0,-100.00,NW,316,12.0,17.0,61,0.00,,,0.12,231.000000,,2013-03-08 16:52:00,
2013-03-08 09:02:00,45.0,32.0,-100.00,NW,316,12.0,17.0,61,0.00,,,0.12,231.000000,,2013-03-08 17:02:00,
2013-03-08 09:11:00,45.0,32.0,-100.00,NW,316,12.0,17.0,61,0.00,,,0.12,231.000000,,2013-03-08 17:11:00,
2013-03-08 09:21:00,45.0,32.0,-100.00,NW,316,12.0,17.0,61,0.00,,,0.12,231.000000,,2013-03-08 17:21:00,
2013-03-08 09:52:00,48.0,36.0,-100.00,NW,305,11.0,19.0,62,0.00,,,0.12,434.000000,,2013-03-08 17:52:00,
2013-03-08 10:01:00,48.0,36.0,-100.00,NW,305,11.0,19.0,62,0.00,,,0.12,434.000000,,2013-03-08 18:01:00,
2013-03-08 10:11:00,48.0,36.0,-100.00,NW,305,11.0,19.0,62,0.00,,,0.12,434.000000,,2013-03-08 18:11:00,
2013-03-08 10:21:00,48.0,36.0,-100.00,NW,305,11.0,19.0,62,0.00,,,0.12,434.000000,,2013-03-08 18:21:00,
2013-03-08 10:52:00,52.0,38.0,-100.00,WNW,289,11.0,17.0,58,0.00,,,0.12,575.000000,,2013-03-08 18:52:00,
2013-03-08 11:01:00,52.0,38.0,-100.00,WNW,289,11.0,17.0,58,0.00,,,0.12,575.000000,,2013-03-08 19:01:00,
2013-03-08 11:11:00,52.0,38.0,-100.00,WNW,289,11.0,17.0,58,0.00,,,0.12,575.000000,,2013-03-08 19:11:00,
2013-03-08 11:21:00,52.0,38.0,-100.00,WNW,289,11.0,17.0,58,0.00,,,0.12,575.000000,,2013-03-08 19:21:00,
2013-03-08 11:52:00,55.0,41.0,-100.00,West,265,12.0,16.0,58,0.00,,,0.12,558.000000,,2013-03-08 19:52:00,
2013-03-08 12:01:00,55.0,41.0,-100.00,West,265,12.0,16.0,58,0.00,,,0.12,558.000000,,2013-03-08 20:01:00,
2013-03-08 12:11:00,55.0,41.0,-100.00,West,265,12.0,16.0,58,0.00,,,0.12,558.000000,,2013-03-08 20:11:00,
2013-03-08 12:21:00,55.0,41.0,-100.00,West,265,12.0,16.0,58,0.00,,,0.12,558.000000,,2013-03-08 20:21:00,
2013-03-08 12:53:00,54.0,40.0,-100.00,WSW,251,16.0,20.0,60,0.00,,,0.12,526.000000,,2013-03-08 20:53:00,
2013-03-08 13:01:00,54.0,40.0,-100.00,WSW,251,16.0,20.0,60,0.00,,,0.12,526.000000,,2013-03-08 21:01:00,
2013-03-08 13:11:00,54.0,40.0,-100.00,WSW,251,16.0,20.0,60,0.00,,,0.12,526.000000,,2013-03-08 21:11:00,
2013-03-08 13:21:00,54.0,40.0,-100.00,WSW,251,16.0,20.0,60,0.00,,,0.12,526.000000,,2013-03-08 21:21:00,
2013-03-08 13:52:00,57.0,42.0,-100.00,WSW,248,14.0,22.0,57,0.00,,,0.12,750.000000,,2013-03-08 21:52:00,
2013-03-08 14:01:00,57.0,42.0,-100.00,WSW,248,14.0,22.0,57,0.00,,,0.12,750.000000,,2013-03-08 22:01:00,
2013-03-08 14:11:00,57.0,42.0,-100.00,WSW,248,14.0,22.0,57,0.00,,,0.12,750.000000,,2013-03-08 22:11:00,
2013-03-08 14:21:00,57.0,42.0,-100.00,WSW,248,14.0,22.0,57,0.00,,,0.12,750.000000,,2013-03-08 22:21:00,
2013-03-08 14:52:00,56.0,41.0,-100.00,WSW,243,17.0,22.0,57,0.00,,,0.12,668.000000,,2013-03-08 22:52:00,
2013-03-08 15:01:00,56.0,41.0,-100.00,WSW,243,17.0,22.0,57,0.00,,,0.12,668.000000,,2013-03-08 23:01:00,
2013-03-08 15:11:00,56.0,41.0,-100.00,WSW,243,17.0,22.0,57,0.00,,,0.12,668.000000,,2013-03-08 23:11:00,
2013-03-08 15:21:00,56.0,41.0,-100.00,WSW,243,17.0,22.0,57,0.00,,,0.12,668.000000,,2013-03-08 23:21:00,
2013-03-08 15:53:00,54.0,41.0,-100.00,WSW,253,18.0,24.0,62,0.00,,,0.12,541.000000,,2013-03-08 23:53:00,
2013-03-08 16:01:00,54.0,41.0,-100.00,WSW,253,18.0,24.0,62,0.00,,,0.12,541.000000,,2013-03-09 00:01:00,
2013-03-08 16:11:00,54.0,41.0,-100.00,WSW,253,18.0,24.0,62,0.00,,,0.12,541.000000,,2013-03-09 00:11:00,
2013-03-08 16:21:00,54.0,41.0,-100.00,WSW,253,18.0,24.0,62,0.00,,,0.12,541.000000,,2013-03-09 00:21:00,
2013-03-08 16:52:00,53.0,43.0,-100.00,WSW,254,18.0,24.0,70,0.00,,,0.12,347.000000,,2013-03-09 00:52:00,
2013-03-08 17:01:00,53.0,43.0,-100.00,WSW,254,18.0,24.0,70,0.00,,,0.12,347.000000,,2013-03-09 01:01:00,
2013-03-08 17:12:00,53.0,43.0,-100.00,WSW,254,18.0,24.0,70,0.00,,,0.12,347.000000,,2013-03-09 01:12:00,
2013-03-08 17:21:00,53.0,43.0,-100.00,WSW,254,18.0,24.0,70,0.00,,,0.12,347.000000,,2013-03-09 01:21:00,
2013-03-08 19:52:00,41.0,40.0,-100.00,WSW,247,14.0,20.0,95,-99.99,,,0.11,0.000000,,2013-03-09 03:52:00,
2013-03-08 20:01:00,41.0,40.0,-100.00,WSW,247,14.0,20.0,95,-99.99,,,0.11,0.000000,,2013-03-09 04:01:00,
2013-03-08 20:11:00,41.0,40.0,-100.00,WSW,247,14.0,20.0,95,-99.99,,,0.11,0.000000,,2013-03-09 04:11:00,
2013-03-08 20:22:00,41.0,40.0,-100.00,WSW,247,14.0,20.0,95,-99.99,,,0.11,0.000000,,2013-03-09 04:22:00,
2013-03-08 20:52:00,40.0,39.0,-100.00,WSW,256,15.0,21.0,97,0.00,,,0.10,0.000000,,2013-03-09 04:52:00,
2013-03-08 21:02:00,40.0,39.0,-100.00,WSW,256,15.0,21.0,97,0.00,,,0.10,0.000000,,2013-03-09 05:02:00,
2013-03-08 21:11:00,40.0,39.0,-100.00,WSW,256,15.0,21.0,97,0.00,,,0.10,0.000000,,2013-03-09 05:11:00,
2013-03-08 21:21:00,40.0,39.0,-100.00,WSW,256,15.0,21.0,97,0.00,,,0.10,0.000000,,2013-03-09 05:21:00,
2013-03-08 21:53:00,40.0,39.0,-100.00,West,259,16.0,20.0,97,0.00,,,0.01,0.000000,,2013-03-09 05:53:00,
2013-03-08 22:01:00,40.0,39.0,-100.00,West,259,16.0,20.0,97,0.00,,,0.01,0.000000,,2013-03-09 06:01:00,
2013-03-08 22:11:00,40.0,39.0,-100.00,West,259,16.0,20.0,97,0.00,,,0.01,0.000000,,2013-03-09 06:11:00,
2013-03-08 22:22:00,40.0,39.0,-100.00,West,259,16.0,20.0,97,0.00,,,0.01,0.000000,,2013-03-09 06:22:00,
2013-03-08 22:52:00,40.0,40.0,-100.00,SW,234,13.0,17.0,100,0.00,,,0.00,0.000000,,2013-03-09 06:52:00,
2013-03-08 23:01:00,40.0,40.0,-100.00,SW,234,13.0,17.0,100,0.00,,,0.00,0.000000,,2013-03-09 07:01:00,
2013-03-08 23:11:00,40.0,40.0,-100.00,SW,234,13.0,17.0,100,0.00,,,0.00,0.000000,,2013-03-09 07:11:00,
2013-03-08 23:21:00,40.0,40.0,-100.00,SW,234,13.0,17.0,100,0.00,,,0.00,0.000000,,2013-03-09 07:21:00,
2013-03-08 23:52:00,40.0,39.0,-100.00,SW,231,12.0,16.0,97,0.00,,,0.00,0.000000,,2013-03-09 07:52:00,